Temp
18 18 18 19 19 19 19 19 20 20 20 20 20 20 20 20 20 20 22 24 24 23 23 23 24 25 24 25 26 26 20 21 23 25 25 23 21 23 24 25 25 25 26 26 26
18 18 18 19 19 19 19 19 19 19 20 20 20 20 19 20 20 22 24 24 24 23 23 23 24 24 24 25 26 24 19 23 24 26 26 25 23 23 23 22 24 26 26 26 25
18 18 18 19 19 19 19 19 19 19 20 20 20 20 19 20 20 24 24 25 24 23 22 22 23 22 23 24 25 24 22 24 26 28 29 25 24 24 23 21 26 28 27 26 26
18 18 19 19 19 19 19 19 19 19 20 20 20 19 19 19 21 24 24 24 24 23 22 22 22 22 22 23 26 24 26 26 28 28 30 29 26 24 24 27 29 29 28 27 26
18 19 19 19 19 19 19 19 19 19 19 19 19 19 19 19 23 24 24 24 23 23 22 22 23 23 22 23 24 23 25 27 28 28 29 31 29 25 25 29 28 28 28 27 27
19 19 19 19 19 19 19 19 19 19 19 19 19 19 18 17 24 24 23 24 24 23 23 23 24 25 25 24 23 26 26 26 28 28 29 29 30 30 29 29 28 27 27 27 27
19 19 19 19 19 19 19 19 19 19 19 19 19 18 18 22 24 23 23 23 24 24 24 25 25 23 25 23 26 26 24 23 26 28 27 29 27 27 30 29 28 27 26 25 26
19 19 19 20 20 19 19 19 19 19 19 19 18 18 19 24 23 23 23 23 23 23 24 24 24 24 24 26 25 24 24 23 24 27 29 28 23 25 30 30 26 25 24 26 24
19 19 20 20 20 19 19 19 19 18 19 18 18 17 20 23 23 24 23 24 24 24 24 24 24 25 25 21 19 19 22 22 24 26 27 26 24 25 29 30 24 23 24 25 24
19 19 20 20 20 19 19 19 19 18 18 18 17 17 22 24 24 24 24 24 24 24 24 25 24 20 17 18 19 20 21 22 23 26 24 24 23 25 29 28 23 23 23 23 24
19 19 19 20 20 19 19 19 19 19 18 21 22 22 23 24 24 24 24 24 24 24 21 24 20 18 19 18 21 22 22 21 24 25 24 25 25 23 26 27 22 22 22 22 23
19 19 19 19 19 20 20 20 22 21 19 22 22 21 23 22 22 24 24 24 23 21 21 20 18 20 20 21 21 21 21 22 24 24 23 23 24 23 23 25 23 22 20 22 22
19 19 19 19 19 20 20 21 21 21 20 21 22 22 23 23 22 24 25 24 23 21 21 19 21 22 22 22 22 22 21 23 23 25 25 26 22 25 24 26 22 22 24 22 24
19 19 20 20 20 20 21 21 21 21 15 19 22 23 23 24 23 25 25 25 22 21 20 20 22 22 22 22 23 21 23 25 24 24 22 24 20 22 23 23 21 20 20 23 23
19 20 20 19 20 20 20 21 21 21 17 24 24 26 26 24 25 25 26 25 21 22 22 20 22 22 22 23 24 23 25 24 25 23 22 22 19 20 21 21 21 19 19 22 22
20 20 20 20 20 20 20 20 21 16 19 24 25 25 25 24 25 26 25 25 25 21 21 21 24 23 22 24 24 25 24 23 20 19 21 21 19 23 20 23 21 19 19 18 19
20 20 20 20 19 20 20 21 15 16 23 22 22 24 24 24 24 24 24 22 20 20 19 22 22 23 24 22 23 23 20 18 18 18 19 22 20 23 23 22 22 20 19 18 20
20 20 19 19 19 20 20 16 17 21 20 22 22 22 23 20 21 21 21 20 21 20 21 20 20 22 24 22 22 21 19 17 18 18 21 20 19 22 23 25 27 24 21 18 17
20 19 18 19 19 19 20 14 17 19 20 19 20 19 18 19 18 19 18 14 16 15 15 18 21 23 24 24 22 22 20 20 20 20 17 18 20 23 23 21 22 23 19 17 17
19 19 19 19 20 20 14 16 16 15 18 19 16 17 16 15 15 16 18 13 12 13 14 13 16 22 23 24 24 22 22 21 16 18 17 18 19 20 21 22 20 19 18 17 16
19 18 17 19 19 19 12 15 15 13 14 14 13 13 13 12 13 15 13 12 11 11 13 10 12 17 21 21 21 21 20 21 19 17 20 20 19 19 20 19 18 18 18 17 16
18 11 16 19 14 12 10 14 14 12 12 12 13 10 11 10 11 12 10 10 10 10 9 9 9 12 17 20 21 20 20 18 16 18 16 15 15 18 16 17 18 19 18 17 17
15 14 14 18 8 8 12 12 12 12 11 11 10 10 10 9 9 10 10 10 10 10 8 8 7 9 14 17 10 13 14 14 15 14 16 18 18 18 18 15 18 17 17 17 15
14 8 13 12 11 9 9 9 10 11 10 11 10 10 9 8 9 8 8 10 9 10 9 8 6 8 8 7 9 10 12 14 14 13 17 16 20 19 18 17 17 16 17 15 15
12 9 10 6 8 8 9 9 9 9 10 10 9 9 8 7 6 6 8 8 9 9 8 6 4 7 8 9 10 11 11 12 13 14 16 17 16 17 15 15 15 16 16 16 16
9 9 10 9 10 8 7 7 9 9 9 8 7 8 6 6 6 5 6 6 6 7 6 5 4 6 6 8 10 10 12 14 15 15 14 15 15 13 15 17 15 15 15 14 15
9 9 10 8 8 6 7 8 8 8 9 9 7 7 6 6 7 7 7 7 6 5 5 4 3 4 5 7 7 8 11 12 12 12 12 11 12 11 12 14 15 16 17 17 17
Height
1529 1528 1526 1524 1524 1523 1522 1522 1522 1522 1522 1523 1522 1522 1521 1520 1519 1517 1514 1516 1517 1519 1521 1522 1522 1522 1524 1525 1526 1525 1536 1542 1533 1529 1529 1524 1521 1520 1517 1515 1517 1520 1522 1526 1531
1528 1526 1524 1523 1522 1520 1520 1520 1520 1520 1520 1520 1521 1520 1519 1518 1516 1513 1512 1512 1515 1517 1519 1521 1521 1521 1521 1523 1524 1523 1537 1531 1521 1518 1523 1524 1524 1518 1520 1520 1517 1518 1524 1527 1531
1526 1524 1523 1521 1520 1519 1519 1519 1519 1519 1519 1519 1519 1519 1518 1517 1515 1510 1509 1509 1512 1515 1518 1519 1521 1522 1520 1520 1521 1520 1527 1521 1514 1516 1515 1520 1519 1521 1520 1523 1512 1511 1519 1524 1528
1524 1522 1521 1519 1518 1517 1517 1517 1517 1517 1517 1517 1517 1517 1517 1517 1517 1509 1509 1509 1511 1513 1515 1517 1520 1522 1521 1519 1518 1521 1516 1516 1512 1514 1512 1509 1514 1519 1519 1509 1507 1512 1517 1521 1522
1522 1520 1518 1517 1516 1515 1515 1515 1515 1515 1515 1515 1515 1515 1515 1515 1509 1508 1508 1509 1509 1510 1512 1516 1518 1520 1521 1517 1515 1517 1513 1511 1510 1512 1513 1508 1509 1513 1515 1510 1511 1513 1515 1519 1520
1520 1518 1516 1515 1514 1513 1513 1514 1514 1514 1514 1514 1513 1514 1515 1515 1507 1507 1508 1507 1507 1508 1510 1514 1516 1518 1518 1516 1517 1510 1511 1509 1507 1506 1509 1509 1506 1506 1511 1511 1511 1512 1513 1517 1521
1519 1516 1515 1513 1512 1511 1512 1512 1513 1512 1512 1512 1512 1512 1512 1505 1506 1507 1507 1507 1507 1507 1509 1512 1515 1518 1516 1515 1512 1511 1514 1507 1504 1502 1502 1503 1510 1507 1507 1510 1510 1511 1516 1519 1522
1518 1515 1512 1511 1510 1510 1511 1511 1512 1511 1511 1511 1511 1511 1506 1503 1505 1504 1507 1507 1508 1509 1510 1513 1515 1515 1514 1513 1511 1513 1513 1522 1503 1500 1500 1504 1522 1502 1504 1505 1510 1512 1515 1516 1518
1517 1513 1511 1509 1509 1509 1510 1511 1511 1511 1511 1511 1511 1511 1502 1500 1499 1501 1505 1506 1507 1509 1509 1510 1513 1512 1511 1516 1526 1521 1528 1520 1511 1498 1500 1504 1511 1498 1502 1503 1508 1509 1510 1509 1513
1516 1513 1510 1508 1508 1509 1510 1510 1510 1511 1510 1510 1510 1513 1499 1497 1497 1499 1502 1505 1507 1508 1510 1510 1510 1512 1516 1525 1540 1529 1526 1518 1517 1500 1503 1506 1505 1497 1495 1499 1504 1506 1506 1508 1511
1516 1512 1510 1508 1508 1509 1510 1511 1514 1512 1508 1505 1503 1500 1495 1497 1496 1498 1500 1504 1506 1507 1510 1509 1517 1523 1516 1515 1515 1516 1520 1521 1504 1494 1503 1499 1495 1495 1491 1493 1501 1503 1503 1505 1508
1516 1513 1510 1509 1509 1510 1511 1510 1509 1510 1501 1496 1494 1493 1492 1496 1498 1497 1500 1504 1504 1509 1507 1514 1519 1507 1508 1508 1512 1515 1521 1518 1500 1494 1497 1490 1489 1486 1487 1488 1488 1494 1499 1500 1504
1515 1513 1511 1510 1510 1510 1510 1510 1509 1508 1502 1485 1484 1485 1487 1493 1493 1492 1495 1498 1501 1506 1509 1516 1505 1501 1505 1508 1513 1511 1516 1509 1508 1492 1486 1487 1499 1490 1486 1484 1489 1490 1489 1494 1496
1514 1513 1512 1511 1513 1510 1510 1508 1507 1505 1513 1492 1482 1480 1484 1489 1490 1487 1490 1495 1499 1504 1507 1507 1498 1500 1502 1505 1503 1516 1495 1495 1494 1497 1513 1489 1529 1498 1489 1486 1484 1486 1489 1490 1492
1513 1512 1511 1511 1511 1510 1510 1507 1506 1506 1532 1482 1481 1480 1480 1486 1483 1483 1486 1490 1496 1498 1502 1505 1498 1500 1503 1498 1491 1498 1483 1489 1486 1492 1499 1498 1520 1503 1488 1491 1489 1486 1483 1484 1486
1511 1510 1510 1510 1510 1509 1506 1504 1505 1519 1522 1486 1482 1482 1483 1484 1480 1482 1486 1488 1489 1494 1495 1494 1489 1491 1490 1485 1486 1485 1486 1486 1491 1498 1511 1500 1509 1497 1494 1482 1479 1483 1484 1483 1485
1509 1508 1509 1511 1511 1508 1505 1503 1519 1528 1491 1498 1493 1488 1485 1485 1483 1482 1484 1489 1498 1509 1508 1490 1484 1479 1481 1486 1478 1484 1499 1523 1525 1522 1515 1488 1499 1482 1470 1465 1464 1469 1475 1478 1480
1507 1508 1510 1512 1511 1508 1505 1506 1525 1506 1506 1497 1495 1488 1492 1492 1491 1491 1490 1496 1488 1489 1486 1497 1497 1479 1470 1477 1483 1483 1493 1520 1531 1528 1502 1488 1500 1475 1458 1456 1457 1459 1460 1472 1479
1508 1509 1511 1512 1512 1509 1507 1525 1527 1514 1507 1506 1498 1503 1504 1501 1505 1499 1503 1517 1511 1512 1516 1497 1483 1469 1466 1462 1469 1478 1490 1479 1494 1492 1508 1496 1475 1456 1453 1453 1448 1449 1457 1463 1472
1508 1508 1509 1511 1510 1509 1512 1520 1523 1524 1512 1507 1517 1512 1518 1518 1516 1511 1506 1533 1527 1520 1510 1506 1497 1466 1463 1460 1458 1467 1465 1485 1498 1510 1514 1494 1482 1475 1460 1452 1450 1452 1457 1463 1469
1508 1509 1512 1510 1509 1510 1526 1524 1528 1530 1520 1523 1527 1526 1529 1533 1527 1520 1527 1527 1528 1520 1515 1517 1504 1480 1465 1465 1468 1467 1471 1470 1474 1485 1487 1486 1478 1452 1447 1443 1446 1448 1450 1453 1458
1508 1516 1514 1508 1514 1523 1534 1532 1534 1537 1529 1531 1532 1538 1539 1541 1536 1533 1540 1540 1540 1532 1531 1527 1517 1502 1475 1458 1456 1461 1464 1469 1490 1483 1483 1488 1484 1447 1445 1445 1447 1448 1452 1451 1452
1515 1522 1519 1511 1535 1538 1540 1542 1542 1542 1541 1539 1544 1544 1544 1546 1545 1539 1540 1543 1541 1538 1538 1536 1529 1518 1481 1466 1476 1482 1478 1480 1471 1470 1474 1479 1469 1446 1446 1450 1453 1458 1465 1465 1465
1519 1528 1530 1529 1537 1538 1542 1549 1548 1548 1548 1547 1549 1545 1546 1547 1547 1546 1545 1540 1541 1542 1540 1536 1537 1534 1527 1528 1524 1505 1488 1487 1485 1483 1464 1466 1448 1447 1448 1448 1452 1456 1462 1466 1477
1526 1540 1543 1550 1547 1545 1547 1554 1552 1552 1550 1549 1548 1547 1548 1550 1549 1549 1546 1543 1540 1538 1536 1538 1538 1528 1521 1519 1515 1501 1488 1486 1484 1474 1469 1457 1455 1445 1451 1444 1446 1452 1459 1463 1464
1535 1543 1546 1548 1548 1548 1553 1557 1555 1552 1552 1551 1552 1549 1550 1554 1554 1550 1545 1543 1540 1532 1533 1533 1533 1525 1518 1510 1503 1497 1486 1472 1466 1461 1460 1454 1453 1453 1448 1441 1443 1445 1451 1455 1460
1543 1547 1548 1555 1553 1556 1560 1559 1559 1556 1556 1555 1554 1551 1551 1550 1547 1543 1540 1535 1532 1532 1529 1533 1531 1527 1515 1508 1505 1497 1482 1478 1474 1470 1467 1470 1463 1459 1453 1446 1438 1441 1445 1447 1453
Wind_Speed
9 8 8 7 7 7 8 8 9 9 8 8 8 8 9 11 12 16 21 15 9 13 9 6 8 9 4 3 5 4 3 2 3 4 3 14 6 2 3 16 11 9 7 30 29
10 9 9 7 7 7 7 8 8 8 8 8 9 8 10 11 14 19 11 12 10 10 5 6 7 4 5 3 3 3 4 5 6 3 3 15 4 13 8 10 6 14 12 34 36
11 10 9 8 7 6 6 7 7 7 8 8 8 9 10 10 14 2 5 3 11 13 6 5 6 6 6 6 4 3 5 5 19 19 23 18 14 12 11 4 19 26 24 34 39
13 11 10 9 8 7 6 6 6 6 7 7 8 9 9 7 3 2 5 3 6 10 10 7 7 3 4 3 7 4 8 13 23 19 12 3 20 10 16 18 31 29 26 34 39
14 12 10 9 8 6 5 5 5 6 6 7 8 8 8 7 14 8 5 5 8 11 10 10 11 6 3 4 10 5 13 21 27 24 16 7 7 12 24 16 27 29 31 35 36
15 12 9 8 7 5 5 4 4 5 6 7 8 8 8 6 4 3 4 8 7 10 12 15 7 5 9 6 5 14 17 24 30 30 8 6 4 4 22 19 26 32 34 35 36
15 11 9 8 6 4 4 4 3 3 4 6 7 8 12 19 6 2 4 4 3 7 12 13 7 10 3 9 11 12 6 9 10 8 6 8 4 5 11 23 28 30 24 15 20
16 12 10 7 6 3 3 3 3 3 3 3 5 8 11 3 13 12 6 2 8 7 7 6 11 19 14 9 10 5 1 4 8 3 5 7 10 10 15 19 24 23 29 28 34
17 13 11 7 4 2 2 2 3 3 3 3 4 6 12 6 16 16 13 5 9 5 6 10 13 7 2 4 6 5 5 7 9 6 4 6 11 11 15 26 25 31 35 36 34
17 15 11 5 1 3 1 1 2 4 4 4 7 7 11 4 14 14 14 10 9 8 11 7 3 2 4 4 8 4 4 5 7 6 5 7 12 6 17 30 30 30 34 36 36
17 14 10 5 3 3 1 1 4 3 8 11 11 13 19 7 4 13 15 18 15 10 5 7 2 8 10 8 5 4 5 10 15 12 5 15 19 11 22 27 28 28 35 36 34
16 12 8 5 4 3 1 3 5 8 13 19 24 28 28 24 10 16 18 17 12 6 3 3 9 9 8 8 7 7 9 16 16 8 6 4 16 9 9 16 37 34 32 37 33
15 9 6 6 4 3 6 6 14 10 7 17 19 22 26 10 12 15 23 24 6 4 5 8 9 5 9 10 8 11 7 15 16 6 3 3 8 1 8 12 27 33 42 38 37
13 7 1 2 2 7 13 13 9 8 5 7 4 4 10 16 8 15 23 21 6 9 5 8 13 13 11 9 8 10 11 15 9 0 4 5 4 5 5 10 16 27 32 40 36
12 5 2 1 2 10 16 11 9 4 3 1 3 3 5 13 1 10 21 23 10 10 6 9 7 4 6 11 8 13 17 13 9 4 2 1 4 8 4 8 8 19 34 42 40
11 3 3 1 5 12 12 14 6 5 2 5 4 2 3 16 12 8 13 20 23 6 5 12 17 6 9 11 8 11 6 5 3 2 8 7 7 8 5 8 6 16 24 30 36
10 2 3 2 8 12 12 6 5 3 9 8 5 7 5 3 5 3 5 4 6 4 7 15 18 15 13 10 14 6 5 4 4 3 8 6 6 9 6 10 10 19 30 39 40
7 4 7 5 10 14 11 5 4 4 5 7 6 9 4 11 5 7 8 6 3 5 11 10 13 8 10 9 10 8 8 5 9 5 10 6 6 10 11 19 23 30 45 37 35
8 12 9 9 10 9 5 5 4 7 8 7 7 7 7 8 8 10 8 15 9 16 6 5 13 9 6 8 9 9 5 8 9 2 1 5 8 6 4 7 18 19 36 37 36
13 13 12 6 7 5 5 1 6 20 9 4 6 6 7 10 9 8 4 18 15 22 19 9 8 4 8 12 16 8 5 7 1 4 11 4 6 7 7 6 3 12 28 33 35
9 5 23 10 3 5 4 4 8 28 18 11 8 6 6 9 5 6 15 14 26 22 16 13 3 5 4 4 5 4 3 3 3 5 11 16 8 7 11 11 15 17 34 40 45
11 6 27 8 10 5 4 7 9 25 23 12 10 12 6 10 5 7 13 10 27 26 11 13 5 5 10 8 10 8 9 6 3 7 2 3 5 1 9 6 4 13 24 37 47
10 11 36 8 4 4 5 13 21 14 17 8 12 10 5 6 5 6 11 16 27 18 12 11 4 7 11 3 12 7 9 15 7 3 9 8 9 3 10 12 18 19 18 16 13
5 4 14 31 23 5 3 9 8 20 20 10 7 6 5 4 3 5 12 11 22 17 19 12 3 2 6 8 11 16 23 18 9 3 4 7 13 6 6 11 14 23 21 14 17
9 6 8 4 10 13 16 3 10 6 9 10 5 4 4 5 6 7 7 10 15 16 9 2 6 9 13 14 18 21 21 15 13 9 6 6 7 6 4 10 20 24 21 15 24
9 8 12 10 23 17 7 6 7 7 7 9 7 6 8 4 2 12 13 12 7 4 4 3 5 9 20 18 18 17 18 20 14 9 7 8 7 8 19 15 18 28 28 29 34
18 16 10 11 13 6 4 8 10 16 16 17 12 4 5 7 20 24 25 27 21 8 7 3 5 2 14 8 15 11 8 5 5 7 2 3 6 9 8 6 21 30 31 33 36
Wind_Direction
350 343 331 315 295 280 273 267 262 259 262 267 274 280 284 286 287 280 268 262 252 231 246 248 273 276 267 240 247 239 57 277 271 48 13 142 147 320 168 152 167 178 149 163 170
342 338 334 323 305 294 272 263 264 263 261 262 268 277 284 291 295 289 310 249 241 193 228 255 270 280 287 200 232 136 131 250 208 252 173 200 50 145 143 177 235 196 149 153 171
338 333 330 323 307 292 269 257 257 260 258 257 264 272 280 298 311 340 24 306 212 205 210 260 259 281 287 273 228 206 202 229 284 289 296 190 155 182 164 242 191 187 167 165 172
337 330 323 319 315 301 284 266 260 262 258 257 258 264 274 288 278 25 350 335 195 213 223 244 228 220 256 259 255 256 266 259 280 292 272 305 160 184 194 192 176 172 172 174 183
340 329 321 317 314 296 284 267 261 259 259 258 255 256 267 265 260 277 334 316 219 220 219 214 205 205 230 242 311 197 267 280 283 288 251 233 148 180 217 186 187 179 179 189 194
346 334 321 315 311 297 277 263 261 262 264 262 256 250 245 256 299 268 313 295 242 222 215 199 201 220 279 241 163 282 292 290 294 287 223 201 247 121 207 182 180 186 184 191 202
353 344 329 317 314 294 263 253 260 273 274 270 254 247 250 247 260 243 320 300 224 199 188 187 222 258 283 324 304 301 300 308 283 266 213 193 326 224 197 199 189 187 196 192 227
355 349 338 325 315 277 241 249 258 272 282 275 254 255 256 287 222 236 244 187 179 186 227 252 288 283 255 266 315 342 99 291 276 208 256 159 253 258 244 176 154 155 157 153 138
356 350 341 328 309 221 209 248 244 256 255 253 250 260 266 227 221 238 223 235 171 198 258 289 280 264 256 65 356 9 247 268 297 228 204 157 247 247 191 173 144 136 134 135 138
357 353 350 343 330 164 174 342 305 270 253 253 231 295 250 245 228 225 211 217 224 240 250 262 262 43 23 93 226 245 298 303 254 273 167 249 252 251 206 189 153 147 142 143 146
357 358 4 30 103 141 134 21 0 275 248 245 263 242 278 305 254 209 206 214 230 216 156 262 95 226 230 214 212 256 254 264 269 267 187 237 228 204 189 170 156 158 158 158 156
357 1 16 54 98 104 56 304 12 325 291 274 261 255 264 268 286 238 193 201 217 204 164 340 239 230 234 250 237 262 263 275 284 252 183 267 218 200 185 186 168 168 164 167 165
354 359 28 57 53 31 329 314 338 341 291 295 252 238 244 243 237 231 192 201 183 198 200 204 237 198 218 258 252 255 237 261 249 257 319 74 325 260 235 208 168 178 181 179 180
347 345 305 344 45 1 11 357 2 341 29 280 206 260 214 225 274 230 199 203 197 213 211 242 245 244 256 246 229 256 235 248 263 321 245 118 256 292 249 236 168 180 181 184 188
344 326 294 130 22 9 346 335 330 324 5 28 157 185 161 167 252 207 208 198 188 211 138 245 298 286 267 242 239 249 267 251 238 245 115 180 115 261 299 217 214 188 188 191 193
342 309 240 199 34 354 330 318 309 48 318 352 35 148 109 211 245 244 193 216 225 198 214 245 252 207 230 264 259 259 276 303 32 106 263 242 160 252 211 213 198 205 200 188 185
342 317 205 211 353 339 346 343 46 113 312 357 353 340 311 289 284 206 223 169 189 176 243 251 251 253 249 272 283 211 70 315 309 289 240 232 262 241 246 234 197 182 190 192 189
5 85 91 72 0 350 348 50 50 303 12 4 328 324 41 30 16 3 3 328 284 263 226 225 261 197 234 189 233 251 171 175 238 232 256 206 240 262 236 248 253 211 198 183 175
101 91 81 17 348 356 357 56 35 348 2 345 331 37 345 38 353 360 68 6 24 358 347 313 265 311 259 240 154 265 219 204 239 224 227 206 274 293 276 301 280 192 171 173 167
129 104 48 3 325 325 69 53 69 15 344 22 30 32 16 0 21 1 43 20 358 355 344 331 297 219 285 252 259 182 205 273 21 209 258 232 231 237 249 244 127 143 166 166 163
132 108 4 347 2 59 71 15 60 19 36 36 10 41 17 13 316 336 10 46 15 352 21 9 310 284 348 224 227 280 248 259 253 179 248 258 251 217 231 208 179 177 174 168 164
71 62 3 340 55 28 33 351 61 27 20 36 37 65 17 10 339 33 13 52 14 5 6 0 300 286 237 252 274 221 247 202 192 252 194 171 267 337 56 57 75 161 171 169 167
72 65 28 78 73 10 71 52 69 44 24 17 22 63 359 17 4 12 9 346 15 11 18 344 350 313 318 353 16 5 340 355 315 112 233 240 250 219 68 46 85 105 135 145 216
68 44 37 58 62 85 68 30 37 39 56 56 38 40 18 12 38 306 355 343 347 354 347 350 250 292 278 298 297 293 300 311 289 267 250 222 256 232 106 124 140 157 181 186 185
57 51 12 360 33 78 74 30 40 26 25 33 0 9 30 3 337 5 335 324 325 327 327 75 251 253 273 281 290 283 299 311 298 284 226 254 229 276 203 181 173 155 161 176 185
77 52 62 93 69 66 39 345 22 358 38 352 38 19 65 62 319 314 316 318 289 296 298 226 261 320 296 285 265 284 302 305 293 262 237 250 235 3 328 218 157 166 176 178 189
63 58 70 54 52 65 13 30 30 26 9 27 42 18 20 330 309 298 295 285 268 271 285 217 277 280 278 353 335 285 230 341 346 38 339 1 318 342 322 323 160 161 177 187 198